Tracking 27122 objects as of 25-Mar-2023
HD Live streaming from Space Station
objects crossing your sky now

FENGYUN 1C DEB

Track FENGYUN 1C DEB now!
10-day predictions


NORAD ID: 32416
Int'l Code: 1999-025DAC
Perigee: 850.7 km
Apogee: 1,212.9 km
Inclination: 100.8 °
Period: 105.6 minutes
Semi major axis: 7402 km
RCS: 0.0112 m2 (small)
Launch date: May 10, 1999
Source: People's Republic of China (PRC)
Launch site: Taiyaun Space Center, China (TSC)

Note: This is SATELLITE DEBRIS
Your satellite tracking list
Your tracking list is empty




NASA's NSSDC Master Catalog

Two Line Element Set (TLE):
1 32416U 99025DAC 23071.11975788  .00001359  00000-0  14742-2 0  9998
2 32416 100.8062  35.6317 0244635 209.4481 215.0332 13.63043884479042
Source of the keplerian elements: AFSPC